Fort Lewis, WA

2:54 AM PDT on June 23, 2017 (GMT -0700)
Gray Army Air Field

Weather History for KGRF - March, 2013

Change the Weather History Date:

Saturday, March 9, 2013

  Actual Average Record
Temperature  
Mean Temperature 41 °F -  
Max Temperature 56 °F 50 °F 58 °F (2015)
Min Temperature 26 °F 35 °F 26 °F (2009)
Degree Days  
Heating Degree Days 24    
Moisture  
Dew Point 32 °F    
Average Humidity 90    
Maximum Humidity 100    
Minimum Humidity 40    
Precipitation  
Precipitation 0.00 in - - ()
Sea Level Pressure  
Sea Level Pressure 30.39 in    
Wind  
Wind Speed 4 mph (SE)    
Max Wind Speed 7 mph    
Max Gust Speed -    
Visibility 7 miles    
Events Fog    
Averages and records for this station are not official NWS values.
T = Trace of Precipitation, MM = Missing Value Source: NWS Daily Summary

Daily Weather History Graph

Daily Weather History Graph

Search for Another Location

Airport or City:

Trip Planner

Search our weather history database for the weather conditions in past years. The results will help you decide how hot, cold, wet, or windy it might be!

Date:

Astronomy

Mar. 09, 2013 Rise Set
Actual Time 6:34 AM PST 6:07 PM PST
Civil Twilight 6:03 AM PST 6:38 PM PST
Nautical Twilight 5:28 AM PST 7:13 PM PST
Astronomical Twilight 4:52 AM PST 7:49 PM PST
Moon 5:08 AM PST (3/9) 4:11 PM PST (3/9)
Length of Visible Light 12h 34m
Length of Day
11h 33m
Waning Crescent, 5% of the Moon is Illuminated
Mar 9
Waning Crescent
Mar 11
New
Mar 19
First Quarter
Mar 27
Full
Apr 2
Last Quarter

Hourly Weather History & Observations

Time (PST) Temp. Windchill Dew Point Humidity Pressure Visibility Wind Dir Wind Speed Gust Speed Precip Events Conditions
12:28 AM 32.0 °F 27.5 °F 30.2 °F 93% 30.24 in 8.0 mi SE 4.6 mph - N/A   Clear
12:43 AM 32.0 °F 26.4 °F 30.2 °F 93% 30.25 in 10.0 mi SE 5.8 mph - N/A   Clear
12:58 AM 30.7 °F 26.0 °F 30.2 °F 98% 30.27 in 9.0 mi ESE 4.6 mph - N/A   Clear
1:58 AM 29.8 °F - 29.3 °F 98% 30.29 in 10.0 mi ESE 2.3 mph - N/A   Clear
2:33 AM 28.4 °F - 28.4 °F 100% 30.27 in 5.0 mi SE 2.3 mph - N/A   Clear
2:38 AM 30.2 °F 26.7 °F 28.4 °F 93% 30.27 in 4.0 mi SE 3.5 mph - N/A   Clear
2:43 AM 30.2 °F - 28.4 °F 93% 30.27 in 7.0 mi ESE 2.3 mph - N/A   Clear
2:48 AM 30.2 °F - 30.2 °F 100% 30.27 in 10.0 mi ESE 1.2 mph - N/A   Clear
2:58 AM 29.3 °F 25.6 °F 28.8 °F 98% 30.30 in 10.0 mi SE 3.5 mph - N/A   Clear
3:53 AM 28.4 °F 22.2 °F 28.4 °F 100% 30.30 in 8.0 mi SE 5.8 mph - N/A   Clear
3:58 AM 28.9 °F 23.9 °F 28.4 °F 98% 30.32 in 7.0 mi SE 4.6 mph - N/A   Clear
4:03 AM 28.4 °F 24.6 °F 28.4 °F 100% 30.30 in 10.0 mi SE 3.5 mph - N/A   Clear
4:58 AM 27.5 °F 22.2 °F 27.1 °F 99% 30.33 in 10.0 mi SSE 4.6 mph - N/A   Clear
5:58 AM 28.0 °F - 27.7 °F 99% 30.35 in 10.0 mi SE 1.2 mph - N/A   Clear
6:39 AM 28.4 °F - 28.4 °F 100% 30.35 in 10.0 mi Calm Calm - N/A   Partly Cloudy
6:49 AM 28.4 °F 24.6 °F 26.6 °F 93% 30.35 in 10.0 mi SSE 3.5 mph - N/A   Mostly Cloudy
6:58 AM 26.8 °F 22.8 °F 26.1 °F 97% 30.38 in 10.0 mi SE 3.5 mph - N/A   Mostly Cloudy
7:00 AM 26.6 °F 22.6 °F 24.8 °F 93% 30.36 in 10.0 mi SSE 3.5 mph - N/A   Scattered Clouds
7:03 AM 26.6 °F 21.2 °F 24.8 °F 93% 30.36 in 10.0 mi SSE 4.6 mph - N/A   Mostly Cloudy
7:18 AM 28.4 °F 22.2 °F 28.4 °F 100% 30.37 in 10.0 mi ESE 5.8 mph - N/A   Scattered Clouds
7:40 AM 30.2 °F - 30.2 °F 100% 30.37 in 3.0 mi SE 2.3 mph - N/A   Scattered Clouds
7:42 AM 30.2 °F - 30.2 °F 100% 30.38 in 0.5 mi SE 2.3 mph - N/A Fog Fog
7:58 AM 30.6 °F 25.8 °F 30.0 °F 98% 30.42 in 0.8 mi South 4.6 mph - N/A   Mostly Cloudy
8:03 AM 32.0 °F 27.5 °F 32.0 °F 100% 30.39 in 0.2 mi SE 4.6 mph - N/A Fog Light Freezing Fog
8:08 AM 32.0 °F 28.7 °F 32.0 °F 100% 30.40 in 0.2 mi SE 3.5 mph - N/A Fog Light Freezing Fog
8:18 AM 32.0 °F 27.5 °F 32.0 °F 100% 30.40 in 0.2 mi ESE 4.6 mph - N/A Fog Light Freezing Fog
8:23 AM 32.0 °F 28.7 °F 32.0 °F 100% 30.40 in 0.2 mi ESE 3.5 mph - N/A Fog Fog
8:28 AM 32.0 °F 28.7 °F 32.0 °F 100% 30.40 in 0.2 mi ESE 3.5 mph - N/A Fog Fog
8:33 AM 32.0 °F 28.7 °F 32.0 °F 100% 30.40 in 0.2 mi SE 3.5 mph - N/A Fog Fog
8:38 AM 32.0 °F 26.4 °F 32.0 °F 100% 30.40 in 0.2 mi SE 5.8 mph - N/A Fog Fog
8:43 AM 32.0 °F 26.4 °F 32.0 °F 100% 30.40 in 0.2 mi SE 5.8 mph - N/A Fog Fog
8:53 AM 32.0 °F 26.4 °F 32.0 °F 100% 30.40 in 0.2 mi East 5.8 mph - N/A Fog Fog
8:58 AM 33.4 °F 29.1 °F 33.3 °F 99% 30.42 in 0.2 mi SE 4.6 mph - N/A Fog Fog
9:03 AM 33.8 °F 29.6 °F 33.8 °F 100% 30.40 in 0.5 mi SSE 4.6 mph - N/A Fog Fog
9:13 AM 35.6 °F 30.7 °F 35.6 °F 100% 30.40 in 0.5 mi SSE 5.8 mph - N/A Fog Fog
9:18 AM 35.6 °F 30.7 °F 35.6 °F 100% 30.41 in 0.8 mi SSE 5.8 mph - N/A   Overcast
9:23 AM 35.6 °F 30.7 °F 35.6 °F 100% 30.41 in 1.0 mi SSE 5.8 mph - N/A   Overcast
9:28 AM 35.6 °F 31.7 °F 35.6 °F 100% 30.41 in 2.5 mi South 4.6 mph - N/A   Overcast
9:33 AM 35.6 °F 32.8 °F 35.6 °F 100% 30.41 in 9.0 mi SSE 3.5 mph - N/A   Mostly Cloudy
9:38 AM 37.4 °F - 37.4 °F 100% 30.41 in 10.0 mi South 2.3 mph - N/A   Scattered Clouds
9:43 AM 37.4 °F - 37.4 °F 100% 30.41 in 10.0 mi Variable 2.3 mph - N/A   Scattered Clouds
9:58 AM 38.5 °F - 37.9 °F 98% 30.44 in 10.0 mi Calm Calm - N/A   Partly Cloudy
10:58 AM 45.0 °F - 39.4 °F 81% 30.45 in 10.0 mi Variable 2.3 mph - N/A   Clear
11:58 AM 48.9 °F - 39.4 °F 70% 30.46 in 10.0 mi Variable 2.3 mph - N/A   Clear
12:58 PM 52.7 °F - 38.5 °F 58% 30.45 in 10.0 mi Variable 1.2 mph - N/A   Clear
1:58 PM 55.2 °F - 33.4 °F 44% 30.44 in 10.0 mi Variable 2.3 mph - N/A   Clear
2:58 PM 55.8 °F - 34.2 °F 44% 30.44 in 10.0 mi West 4.6 mph - N/A   Clear
3:58 PM 56.8 °F - 32.5 °F 40% 30.44 in 10.0 mi SSW 5.8 mph - N/A   Clear
4:58 PM 55.6 °F - 33.8 °F 44% 30.44 in 10.0 mi WNW 6.9 mph - N/A   Clear
5:58 PM 52.3 °F - 36.7 °F 55% 30.46 in 10.0 mi WNW 5.8 mph - N/A   Clear
6:58 PM 48.4 °F - 35.1 °F 60% 30.48 in 10.0 mi WSW 4.6 mph - N/A   Clear
7:58 PM 46.6 °F - 35.2 °F 65% 30.50 in 10.0 mi West 3.5 mph - N/A   Clear
8:58 PM 40.1 °F 36.9 °F 35.8 °F 85% 30.51 in 10.0 mi SE 4.6 mph - N/A   Clear
9:58 PM 37.9 °F - 35.2 °F 90% 30.51 in 10.0 mi South 2.3 mph - N/A   Clear
10:58 PM 36.5 °F - 35.1 °F 95% 30.51 in 10.0 mi SE 2.3 mph - N/A   Clear
11:58 PM 33.6 °F 29.4 °F 32.9 °F 97% 30.51 in 10.0 mi SE 4.6 mph - N/A   Scattered Clouds